TimeCEST,TemperatureF,Dew PointF,Humidity,Sea Level PressureIn,VisibilityMPH,Wind Direction,Wind SpeedMPH,Gust SpeedMPH,PrecipitationIn,Events,Conditions,WindDirDegrees,DateUTC
12:00 AM,50.0,46.4,87,30.06,-9999.0,Variable,2.3,-,N/A,,Clear,0,2012-10-02 22:00:00
1:00 AM,48.2,46.4,93,30.06,-9999.0,South,2.3,-,N/A,,Clear,170,2012-10-02 23:00:00
2:00 AM,48.2,44.6,87,30.06,-9999.0,South,1.2,-,N/A,,Clear,170,2012-10-03 00:00:00
3:00 AM,44.6,42.8,93,30.06,-9999.0,NW,2.3,-,N/A,,Clear,310,2012-10-03 01:00:00
4:00 AM,46.4,44.6,93,30.06,-9999.0,Calm,Calm,-,N/A,,Clear,0,2012-10-03 02:00:00
5:00 AM,44.6,42.8,93,30.06,-9999.0,SE,3.5,-,N/A,,Clear,140,2012-10-03 03:00:00
6:00 AM,42.8,41.0,93,30.06,-9999.0,ESE,2.3,-,N/A,,Clear,120,2012-10-03 04:00:00
7:00 AM,42.8,42.8,100,30.06,-9999.0,ESE,2.3,-,N/A,,Clear,120,2012-10-03 05:00:00
8:00 AM,44.6,42.8,93,30.06,-9999.0,ESE,3.5,-,N/A,,Clear,120,2012-10-03 06:00:00
9:00 AM,50.0,46.4,87,30.06,-9999.0,SE,4.6,-,N/A,,Clear,140,2012-10-03 07:00:00
10:00 AM,55.4,48.2,77,30.06,-9999.0,ESE,4.6,-,N/A,,Clear,120,2012-10-03 08:00:00
11:00 AM,60.8,50.0,68,30.06,-9999.0,Variable,2.3,-,N/A,,Clear,0,2012-10-03 09:00:00
12:00 PM,62.6,46.4,55,30.06,-9999.0,Variable,4.6,-,N/A,,Clear,0,2012-10-03 10:00:00
1:00 PM,66.2,48.2,52,30.04,-9999.0,WSW,5.8,-,N/A,,Clear,240,2012-10-03 11:00:00
2:00 PM,68.0,46.4,46,30.01,6.2,WSW,6.9,-,N/A,,Scattered Clouds,240,2012-10-03 12:00:00
3:00 PM,68.0,46.4,46,30.01,6.2,SW,9.2,-,N/A,,Scattered Clouds,230,2012-10-03 13:00:00
4:00 PM,68.0,46.4,46,30.01,-9999.0,SW,10.4,-,N/A,,Clear,230,2012-10-03 14:00:00
5:00 PM,68.0,50.0,52,30.01,-9999.0,WSW,8.1,-,N/A,,Clear,250,2012-10-03 15:00:00
6:00 PM,62.6,48.2,59,30.01,-9999.0,West,6.9,-,N/A,,Clear,260,2012-10-03 16:00:00
7:00 PM,62.6,48.2,59,29.98,-9999.0,South,3.5,-,N/A,,Clear,190,2012-10-03 17:00:00
8:00 PM,59.0,51.8,77,30.01,-9999.0,SW,4.6,-,N/A,,Clear,220,2012-10-03 18:00:00
9:00 PM,57.2,48.2,72,30.01,-9999.0,SW,5.8,-,N/A,,Clear,220,2012-10-03 19:00:00
10:00 PM,55.4,48.2,77,30.01,-9999.0,SSW,5.8,-,N/A,,Clear,210,2012-10-03 20:00:00
11:00 PM,55.4,48.2,77,30.01,-9999.0,Variable,2.3,-,N/A,,Clear,0,2012-10-03 21:00:00